Temp_Advection
nan nan nan nan nan nan nan nan nan nan nan nan nan nan nan nan nan nan nan nan nan nan nan nan nan nan nan nan nan nan nan nan nan nan nan nan nan nan nan nan nan nan nan
nan -0 -0 -0 -0 -0 -0 -0 0 0 0 0 0 0 0 0 -0 -0 0 0 0 -0 -0 0 0 -0 -0 -0 -0 -0 -0 -0 -0 -0 -0 -0 -0 -0 -0 -0 -0 0 nan
nan -1 -0 -0 -1 -0 -0 0 0 0 0 0 0 0 0 -0 -0 -0 0 0 0 0 0 0 -0 -0 -0 -0 -0 -0 -0 -0 -0 -0 0 0 0 0 -0 -0 -0 -0 nan
nan -0 -0 -0 -0 -1 -1 -0 0 0 0 0 0 0 0 0 0 -0 -0 0 0 0 0 -0 -0 -0 -0 -0 0 0 -0 -0 -0 0 -0 -0 -0 -0 -0 -0 -0 -0 nan
nan 0 0 -0 0 -0 -0 0 -0 0 0 0 0 0 0 0 0 0 0 -0 -0 0 0 -0 -0 -0 -0 0 0 0 0 0 0 0 -0 -0 -0 -0 -0 -0 -0 -0 nan
nan 0 0 0 0 0 -0 -0 0 0 0 0 0 0 0 0 0 0 0 0 0 0 -0 -0 -0 -0 -0 -0 -0 -0 0 0 0 0 0 0 -0 -0 -0 -0 -0 -1 nan
nan 0 -0 0 0 0 -0 -1 -1 -0 0 -0 0 -0 0 0 0 0 0 0 0 0 -0 -0 -0 -0 -0 -0 -0 -0 -0 -0 -0 -0 -0 0 0 -0 -0 -0 -0 -0 nan
nan 0 0 0 0 0 0 -0 -1 -1 -0 -0 -0 -1 -0 -0 0 0 0 0 0 0 -0 -0 -0 -0 -0 -0 -0 -0 -0 -0 -0 0 0 -0 -0 -0 -0 -0 -0 -0 nan
nan 0 0 0 0 0 0 0 0 -0 -1 -1 -0 -0 -0 -0 -0 0 0 0 0 -0 -0 -0 -0 -0 -0 -0 -0 -0 -0 -0 -0 -0 0 0 -0 -0 -0 -0 -0 -0 nan
nan 0 0 0 0 0 0 0 0 0 -0 -0 -1 -0 -0 -0 -0 -0 -0 0 0 -0 -0 -0 -0 -0 -0 -0 -0 -0 -0 -0 -0 -0 -0 -0 -0 -0 -0 -1 -1 -1 nan
nan -0 0 0 0 0 0 0 0 0 0 0 -0 -0 0 0 -0 -0 -1 0 0 -0 -0 0 -0 -0 -0 -0 -0 -0 -0 -0 -0 -0 0 0 0 0 0 0 -0 -0 nan
nan -0 -0 -0 0 -0 0 0 0 0 0 0 0 0 0 0 -0 0 -0 -0 -0 0 0 0 -0 -0 -0 -0 -0 -0 -0 -0 -0 -0 -0 0 0 0 0 1 1 0 nan
nan -0 0 0 -0 -0 0 0 0 0 -0 0 0 0 0 0 0 0 0 0 0 0 0 0 0 -0 -0 -0 -0 -0 -1 -1 -0 -0 -0 -0 -0 -0 -0 -0 -0 0 nan
nan 1 1 0 0 0 0 0 0 0 0 0 0 0 0 0 0 0 0 0 0 0 0 0 0 -0 -0 -1 -0 -0 -0 -1 -1 -0 -0 -0 -1 -1 -1 -1 -0 -0 nan
nan 1 1 1 1 1 1 1 1 1 1 0 0 0 0 0 0 0 0 0 0 -0 0 0 0 0 -0 -0 -0 -0 -0 -0 -1 -1 -0 -0 -0 -0 -0 -0 -1 -1 nan
nan 1 1 1 1 1 1 1 1 1 1 0 0 0 0 0 0 0 0 0 -0 0 0 0 0 -0 -0 0 -0 -0 -0 -0 -0 -0 -0 -0 -0 -0 -0 0 0 -0 nan
nan 0 1 1 1 1 1 1 1 1 1 0 0 0 0 0 0 0 0 -0 -0 -0 0 0 1 0 -1 -0 -0 -0 -0 -0 -0 -1 -0 -0 -0 -0 0 0 0 0 nan
nan 1 1 1 1 1 1 1 1 1 1 0 0 0 0 0 0 0 0 -0 -0 0 0 -0 -0 0 -0 -1 -0 -0 -0 -0 -0 -1 -1 -1 -1 -1 -1 -0 -1 -1 nan
nan 1 1 1 0 1 1 1 1 1 0 0 1 0 0 0 0 0 0 0 0 0 0 0 -0 -0 -0 -0 -1 -0 -0 -0 -0 -0 -0 -0 -1 -1 -1 -0 -0 -1 nan
nan 1 1 1 2 2 1 1 1 1 1 1 1 0 0 0 0 0 0 0 0 0 0 0 -0 -0 -0 -0 0 -0 -0 -0 -0 -0 -0 -0 -0 -0 -0 0 0 0 nan
nan 1 2 2 3 2 2 2 1 0 1 1 0 0 0 0 0 0 0 0 0 0 0 0 0 0 0 -0 -0 -0 -0 -0 -0 -0 -0 -0 0 -0 -0 0 0 0 nan
nan 3 3 2 2 2 2 1 -0 1 0 0 0 0 0 0 0 0 0 0 0 0 0 0 0 0 -0 -0 -0 -0 -0 -0 -0 -0 -0 -0 -0 -0 -0 -0 -0 0 nan
nan 2 2 2 1 2 1 0 1 0 0 0 0 0 0 0 0 0 0 0 -0 0 0 0 0 0 -0 -0 -0 -0 -0 -0 -0 -0 0 -0 -0 -0 -0 -0 -0 0 nan
nan 1 1 1 1 0 -0 0 0 0 0 0 0 0 0 0 0 0 0 0 1 0 0 0 -0 -0 0 0 0 -0 -0 -0 -0 -0 0 -0 -0 -0 -0 0 0 -0 nan
nan 1 1 1 1 0 -0 -0 -0 0 0 0 0 0 0 0 0 0 0 0 0 0 0 -0 -0 -0 -0 0 0 -0 -0 0 -0 -1 -0 0 -0 -1 -1 -1 0 0 nan
nan nan nan nan nan nan nan nan nan nan nan nan nan nan nan nan nan nan nan nan nan nan nan nan nan nan nan nan nan nan nan nan nan nan nan nan nan nan nan nan nan nan nan
Wind_Speed
20 18 17 18 17 17 15 14 13 13 13 13 13 12 11 12 11 9 10 8 8 9 9 10 10 11 10 10 11 12 11 11 12 11 11 12 11 10 11 5 5 8 12
23 21 21 19 18 18 17 15 15 14 13 13 13 13 12 12 10 9 8 8 7 8 8 9 9 10 12 11 11 12 12 11 11 11 10 11 12 11 11 9 8 11 13
24 23 21 21 20 18 17 17 16 15 14 13 13 12 11 11 10 10 7 9 8 7 7 8 8 8 10 10 11 11 11 12 12 12 13 11 12 14 13 16 15 13 12
24 24 23 21 22 22 22 20 19 18 16 15 14 12 11 10 10 10 9 8 6 4 5 6 7 7 7 7 9 11 11 11 10 10 11 11 11 9 9 10 11 12 13
25 24 23 23 22 21 20 18 17 16 17 15 14 12 11 11 10 9 8 7 7 4 4 5 6 7 7 7 6 7 6 7 5 4 6 7 8 9 12 12 12 9 11
26 25 24 23 23 23 21 20 19 18 17 18 14 13 12 10 10 9 7 7 6 4 3 4 6 6 6 7 7 8 9 10 10 10 9 9 9 10 12 11 12 13 11
26 26 25 24 24 23 22 21 21 22 20 19 20 15 11 10 9 9 7 6 5 2 1 3 5 7 9 8 8 9 9 10 11 12 13 14 14 12 12 11 14 13 14
27 26 25 25 24 22 21 22 22 24 22 22 18 14 9 7 8 8 8 6 5 3 4 5 7 8 8 9 10 10 11 11 12 14 15 16 15 14 13 12 15 14 16
26 26 25 23 23 22 22 22 22 23 25 22 17 8 7 6 14 11 10 7 5 6 6 8 8 7 8 11 12 12 12 14 15 15 15 15 14 13 13 14 14 16 17
27 26 24 24 23 22 22 22 22 23 21 24 25 18 11 10 7 8 11 11 8 8 6 7 8 9 9 11 13 13 17 16 16 16 15 14 14 13 14 16 18 19 19
28 27 26 26 24 24 23 23 22 23 19 19 22 20 12 10 12 7 11 13 10 10 7 7 8 9 11 11 14 17 17 17 17 17 16 16 16 16 17 18 19 19 19
32 30 28 27 26 25 25 23 21 20 20 19 20 15 12 8 10 8 9 12 7 8 8 8 7 8 11 12 17 17 18 18 18 18 18 18 18 19 20 20 19 19 19
39 36 33 31 30 27 25 24 23 21 19 17 17 17 16 14 12 11 11 12 7 8 3 6 8 10 11 14 17 18 19 18 18 18 18 18 19 20 21 21 21 22 22
41 38 36 34 32 29 27 25 24 22 21 19 18 16 13 11 9 9 9 6 3 2 3 5 9 11 13 18 20 19 20 22 19 20 19 19 21 21 22 23 24 23 23
38 37 37 36 33 32 30 28 26 24 22 20 17 14 12 10 9 6 4 3 3 3 2 6 7 11 17 19 19 20 20 20 21 21 20 20 21 22 23 23 24 24 24
38 36 36 35 34 33 31 30 28 25 22 19 16 13 10 8 5 3 2 2 2 3 3 8 12 17 20 20 19 21 20 21 20 19 19 20 22 23 24 24 24 24 25
35 37 36 35 34 34 32 31 28 25 21 17 13 10 9 6 4 2 3 5 7 8 10 13 16 19 22 20 20 20 20 19 17 19 18 20 21 21 23 24 24 26 26
37 39 37 37 36 34 33 31 29 25 19 15 11 10 8 6 4 3 5 8 11 13 14 16 18 19 21 21 22 19 19 18 18 19 20 21 21 22 22 23 24 24 25
41 41 39 37 36 35 32 28 23 21 17 15 16 13 9 6 3 6 8 11 12 13 15 16 18 17 19 20 20 21 19 19 18 18 18 20 21 20 21 22 23 24 25
40 39 39 38 38 38 33 24 21 20 19 16 13 11 7 5 5 8 10 12 13 14 14 13 13 17 18 19 17 18 20 20 18 18 19 17 18 21 23 21 22 24 24
42 43 43 43 41 35 29 26 20 19 17 15 12 8 6 7 8 10 12 12 13 13 12 14 16 18 18 15 17 19 21 21 23 17 19 22 18 24 24 25 23 23 26
47 48 48 45 38 32 30 21 22 21 17 13 10 7 6 8 10 12 14 14 14 14 15 14 15 15 17 17 18 18 21 22 24 21 24 26 29 28 25 21 23 24 23
50 51 46 41 39 35 33 30 25 17 14 12 9 9 9 11 12 14 13 12 13 14 13 13 15 13 14 15 18 20 21 24 26 26 26 31 26 26 28 27 25 23 25
51 47 47 44 41 37 32 22 20 18 15 12 10 9 10 13 13 11 13 12 11 10 10 12 14 16 16 17 19 20 22 25 27 25 23 27 26 31 27 26 24 27 21
52 49 42 36 33 29 25 23 19 15 12 12 10 10 11 13 13 11 11 10 9 9 9 13 12 12 14 16 17 20 21 21 25 25 24 27 24 28 29 29 25 21 24
47 41 37 32 29 25 22 20 15 13 13 11 11 11 10 11 12 11 9 8 10 9 13 12 15 15 15 14 15 17 17 20 22 24 16 22 26 25 25 26 22 29 29
Wind_Direction
170 171 169 166 164 165 164 159 164 159 150 148 143 138 133 131 128 139 153 132 110 105 92 81 70 69 60 55 46 43 40 36 34 36 33 26 30 30 12 12 336 343 351
179 173 176 171 170 166 165 164 161 157 155 148 144 138 136 135 130 127 133 127 108 99 90 79 70 65 61 59 46 42 42 39 30 39 26 28 24 21 17 12 352 357 4
183 181 176 178 173 167 164 159 160 161 154 154 147 142 133 134 135 131 117 125 113 95 79 72 65 60 66 59 47 42 37 35 33 25 20 19 21 18 9 16 22 13 10
187 184 184 178 178 176 172 167 167 160 156 154 152 148 146 138 138 138 133 133 117 93 85 70 58 48 39 45 48 39 37 37 31 24 14 16 10 2 3 2 0 350 346
189 187 187 187 185 182 179 175 161 159 155 159 158 151 146 141 144 142 151 150 146 135 98 61 39 25 16 8 3 9 17 6 14 340 340 342 342 348 355 352 345 333 327
192 188 189 189 184 183 179 175 169 162 162 162 155 149 149 148 149 151 156 165 164 150 77 21 2 358 351 341 334 332 331 330 328 331 332 324 321 319 337 334 335 324 316
194 193 194 191 189 186 188 182 176 167 164 163 162 151 148 150 160 167 168 182 179 178 332 336 336 334 331 328 329 328 326 325 325 323 321 322 324 332 339 338 328 327 313
198 197 197 196 193 190 188 188 186 174 176 178 165 153 148 163 177 170 181 189 202 247 292 312 322 324 323 329 328 330 327 326 326 325 325 325 327 336 338 332 326 325 326
200 200 199 198 197 197 194 194 191 191 184 169 176 158 162 188 177 197 196 192 208 248 285 308 312 318 321 324 324 326 327 327 324 322 324 328 337 337 332 322 314 311 315
200 200 200 199 200 198 197 196 194 194 194 190 181 191 169 184 174 171 210 213 215 255 274 296 302 312 319 324 324 332 330 331 331 331 328 328 333 335 329 325 325 327 328
201 199 200 199 199 199 199 198 195 194 199 201 202 203 203 211 182 190 176 193 214 229 256 261 288 297 317 325 325 329 331 331 329 328 328 334 334 332 330 329 331 330 328
203 202 201 202 201 202 201 199 198 198 197 202 209 213 214 197 195 186 166 182 183 230 258 277 285 297 314 321 323 330 328 327 326 326 324 324 321 318 320 321 320 321 322
204 202 202 202 202 204 203 201 202 202 201 198 198 197 202 204 201 194 172 187 174 213 237 256 262 300 304 319 322 328 324 322 324 322 319 316 313 314 316 314 315 315 318
206 202 201 202 203 201 199 198 198 198 198 197 196 197 199 200 203 196 195 189 176 216 265 209 277 305 299 318 320 326 326 319 325 323 323 320 319 321 321 321 320 320 321
206 203 204 202 200 199 197 195 193 190 188 188 190 193 193 195 200 199 205 205 188 162 221 256 281 285 297 313 317 316 319 315 319 319 321 319 319 319 319 318 317 316 315
216 208 203 202 199 196 193 191 187 184 184 183 184 183 184 190 196 213 239 282 313 293 267 267 290 286 299 310 315 317 318 314 316 313 315 315 316 316 316 316 317 317 318
217 211 209 204 200 194 189 186 182 179 175 176 177 189 193 194 197 223 286 309 313 308 298 292 295 297 305 310 313 314 315 316 313 307 311 309 309 308 308 310 310 313 315
219 211 204 199 192 190 185 183 179 176 180 190 195 197 205 204 213 276 304 308 310 306 301 300 302 305 304 311 314 316 314 312 306 312 311 309 310 310 309 309 308 309 307
213 207 204 197 192 187 181 178 182 186 184 191 203 196 188 195 238 277 294 302 303 300 300 300 302 307 306 315 313 319 325 322 315 311 308 309 313 314 316 319 317 315 316
208 204 201 198 192 185 181 186 181 173 184 184 184 187 179 222 262 279 290 294 289 292 292 296 304 301 305 311 308 304 305 310 310 307 308 313 310 315 319 316 310 314 315
210 201 196 187 184 184 187 184 176 184 178 174 187 194 206 239 266 283 283 282 287 288 287 295 299 302 301 306 302 306 305 308 310 315 297 310 304 310 308 305 307 306 304
198 192 184 184 186 189 176 168 184 173 173 184 193 210 237 264 277 283 282 286 283 287 290 292 288 285 287 292 297 301 304 308 305 314 314 308 313 311 315 315 306 303 308
187 183 185 191 176 165 166 174 183 173 179 189 204 228 251 269 278 279 281 283 287 286 288 285 282 287 292 297 298 300 302 301 300 306 301 302 314 307 305 303 301 301 307
185 186 177 172 169 171 177 160 169 174 186 200 221 244 262 276 277 275 277 276 278 284 287 275 274 287 286 288 290 292 295 296 299 303 310 300 303 298 307 308 300 309 307
176 174 171 168 169 165 159 169 174 182 197 219 237 258 270 267 269 271 271 276 286 290 280 292 307 305 303 301 299 297 300 300 297 298 297 294 301 304 308 307 311 308 305
167 163 163 164 159 155 167 174 177 194 218 238 255 264 265 266 272 270 272 265 274 280 279 295 297 300 301 301 304 303 301 293 297 304 306 300 310 314 312 312 306 309 311
Height
1505 1509 1513 1515 1517 1521 1523 1527 1530 1532 1535 1537 1539 1542 1544 1545 1546 1545 1544 1546 1547 1547 1547 1548 1548 1548 1548 1547 1546 1545 1544 1543 1542 1541 1540 1539 1537 1537 1536 1534 1534 1533 1531
1502 1506 1509 1513 1516 1519 1522 1526 1529 1532 1535 1538 1540 1541 1543 1545 1546 1545 1545 1547 1548 1548 1548 1548 1548 1548 1548 1549 1547 1545 1544 1544 1543 1541 1541 1539 1538 1537 1535 1534 1533 1533 1532
1499 1503 1507 1511 1514 1518 1521 1525 1528 1532 1535 1538 1540 1542 1544 1545 1546 1546 1546 1547 1548 1549 1549 1549 1549 1548 1549 1549 1548 1547 1545 1544 1543 1542 1541 1539 1538 1538 1537 1536 1534 1532 1530
1496 1501 1505 1509 1512 1515 1519 1522 1525 1529 1533 1537 1540 1542 1543 1545 1547 1548 1548 1548 1549 1549 1549 1549 1549 1549 1548 1548 1548 1547 1546 1545 1544 1543 1542 1540 1539 1537 1536 1535 1534 1533 1531
1495 1498 1502 1505 1509 1513 1517 1521 1524 1528 1532 1537 1540 1541 1543 1545 1547 1548 1547 1547 1548 1549 1549 1550 1549 1549 1548 1548 1547 1545 1545 1543 1543 1541 1541 1540 1538 1536 1535 1534 1532 1530 1529
1493 1495 1500 1503 1507 1511 1515 1520 1523 1527 1531 1535 1539 1541 1542 1544 1546 1547 1547 1548 1548 1549 1549 1549 1549 1548 1547 1547 1546 1544 1543 1542 1541 1540 1538 1537 1535 1533 1532 1530 1529 1527 1526
1491 1493 1497 1501 1504 1508 1512 1517 1521 1524 1528 1532 1535 1539 1541 1543 1545 1546 1547 1547 1547 1548 1548 1548 1548 1547 1546 1545 1545 1544 1542 1540 1539 1538 1536 1535 1533 1531 1530 1529 1528 1524 1523
1488 1491 1495 1499 1503 1506 1510 1514 1518 1522 1525 1528 1533 1537 1541 1544 1543 1545 1546 1546 1547 1547 1546 1547 1547 1546 1545 1544 1543 1542 1541 1538 1536 1535 1534 1533 1531 1529 1528 1527 1525 1521 1520
1486 1488 1492 1498 1501 1504 1508 1512 1516 1519 1522 1527 1531 1534 1537 1539 1541 1542 1543 1544 1546 1545 1544 1544 1545 1544 1543 1542 1541 1540 1538 1536 1534 1532 1530 1529 1528 1527 1526 1523 1520 1517 1514
1482 1486 1491 1495 1499 1502 1505 1510 1513 1517 1519 1523 1527 1530 1532 1534 1538 1541 1541 1541 1543 1543 1543 1543 1542 1542 1541 1540 1539 1538 1536 1534 1533 1530 1528 1526 1525 1523 1521 1519 1517 1515 1512
1479 1482 1487 1491 1496 1500 1503 1508 1511 1515 1518 1520 1525 1528 1530 1533 1534 1536 1536 1538 1540 1540 1541 1541 1540 1539 1538 1537 1536 1536 1534 1532 1529 1528 1525 1524 1523 1520 1517 1515 1514 1513 1511
1473 1477 1483 1488 1492 1497 1501 1505 1509 1513 1516 1518 1522 1525 1527 1531 1531 1534 1534 1535 1537 1537 1537 1539 1538 1538 1536 1535 1533 1533 1531 1529 1527 1525 1523 1521 1519 1516 1512 1511 1507 1504 1505
1466 1469 1476 1482 1487 1493 1497 1502 1507 1511 1514 1516 1519 1521 1523 1527 1528 1530 1533 1534 1536 1536 1535 1536 1537 1536 1535 1534 1532 1529 1527 1526 1524 1521 1519 1517 1515 1513 1510 1509 1505 1502 1501
1462 1464 1470 1477 1482 1488 1493 1498 1503 1507 1510 1513 1516 1519 1521 1524 1527 1527 1530 1532 1533 1533 1534 1535 1534 1534 1532 1531 1528 1526 1522 1521 1519 1517 1514 1512 1509 1506 1504 1503 1502 1499 1496
1460 1463 1468 1473 1478 1483 1488 1492 1498 1502 1506 1510 1513 1516 1518 1521 1524 1525 1528 1529 1530 1532 1532 1531 1532 1531 1529 1526 1524 1521 1518 1517 1515 1513 1509 1506 1503 1501 1499 1497 1496 1493 1489
1456 1463 1466 1471 1477 1480 1484 1489 1494 1498 1503 1508 1511 1514 1516 1519 1521 1524 1526 1528 1527 1528 1529 1529 1528 1527 1526 1523 1520 1517 1515 1513 1512 1510 1507 1504 1502 1499 1496 1492 1491 1489 1487
1455 1460 1465 1471 1477 1480 1483 1487 1491 1496 1500 1505 1509 1511 1514 1517 1518 1521 1524 1525 1524 1524 1525 1526 1524 1523 1522 1519 1516 1514 1512 1510 1508 1506 1504 1500 1498 1493 1492 1489 1486 1485 1482
1449 1457 1462 1469 1473 1479 1482 1485 1488 1493 1498 1502 1505 1508 1510 1515 1517 1518 1521 1522 1522 1521 1521 1520 1520 1519 1518 1515 1513 1509 1507 1506 1504 1501 1499 1496 1494 1490 1487 1486 1483 1478 1477
1445 1454 1458 1466 1472 1477 1483 1486 1488 1491 1495 1498 1503 1507 1509 1511 1513 1516 1518 1518 1518 1518 1518 1516 1515 1515 1514 1510 1508 1507 1505 1504 1500 1498 1497 1493 1491 1487 1485 1482 1481 1478 1473
1441 1448 1455 1461 1468 1473 1476 1484 1488 1489 1492 1497 1504 1507 1504 1508 1510 1513 1514 1515 1515 1514 1514 1513 1510 1510 1510 1508 1507 1505 1502 1500 1497 1493 1494 1492 1487 1484 1481 1478 1476 1474 1470
1432 1440 1451 1455 1463 1469 1471 1480 1486 1488 1492 1494 1503 1504 1502 1506 1509 1509 1510 1510 1508 1509 1508 1506 1505 1505 1506 1505 1503 1502 1500 1498 1495 1491 1489 1489 1484 1480 1476 1474 1472 1467 1464
1426 1434 1444 1450 1457 1462 1469 1479 1486 1488 1490 1495 1499 1501 1502 1504 1505 1506 1507 1507 1507 1505 1503 1501 1501 1503 1503 1502 1499 1496 1495 1492 1491 1489 1485 1483 1482 1477 1473 1470 1470 1464 1457
1421 1429 1440 1446 1451 1457 1467 1475 1481 1484 1489 1494 1495 1497 1499 1500 1500 1501 1501 1502 1501 1500 1499 1499 1498 1495 1496 1495 1496 1492 1492 1490 1485 1481 1483 1477 1476 1470 1467 1465 1463 1460 1454
1417 1428 1435 1441 1449 1458 1465 1472 1478 1482 1486 1489 1492 1494 1495 1496 1496 1497 1499 1496 1495 1495 1495 1494 1494 1491 1491 1490 1489 1487 1482 1482 1482 1478 1475 1471 1471 1469 1463 1458 1455 1452 1448
1417 1426 1434 1442 1450 1458 1464 1471 1477 1481 1485 1487 1489 1490 1491 1492 1493 1492 1492 1493 1491 1491 1492 1491 1488 1486 1486 1487 1485 1482 1478 1478 1474 1474 1472 1468 1462 1458 1456 1452 1448 1445 1444
1416 1427 1436 1445 1452 1459 1466 1471 1475 1479 1483 1485 1486 1486 1486 1487 1488 1489 1489 1490 1489 1488 1487 1485 1485 1484 1483 1480 1483 1480 1478 1474 1469 1465 1466 1466 1459 1454 1446 1444 1443 1440 1437